This is the latest recevied weather packets stored in our database for station/object HARMAJA. If no packets are shown the sender has not sent any weather packets the latest 10 day(s).
| Time | Temp. | Humidity | Pressure | Rain* | Wind** | Luminosity | Snow |
|---|---|---|---|---|---|---|---|
| 1788499483 | 14.44° C | 84% | 999.9 hPa | - | - | - | - |
| 1788498283 | 14.44° C | 85% | 1000.1 hPa | - | - | - | - |
| 1788497082 | 14.44° C | 84% | 1000.3 hPa | - | - | - | - |
| 1788495882 | 14.44° C | 84% | 1000.5 hPa | - | - | - | - |
| 1788494683 | 14.44° C | 83% | 1000.8 hPa | - | - | - | - |
| 1788493482 | 14.44° C | 85% | 1001.1 hPa | - | - | - | - |
| 1788492283 | 14.44° C | 84% | 1001.3 hPa | - | - | - | - |
| 1788486285 | 14.44° C | 86% | 1002.4 hPa | - | - | - | - |
| 1788483884 | 14.44° C | 86% | 1002.7 hPa | - | - | - | - |
| 1788470682 | 14.44° C | 80% | 1004.8 hPa | - | - | - | - |
| 1788468284 | 14.44° C | 77% | 1004.8 hPa | - | - | - | - |
| 1788467083 | 14.44° C | 78% | 1004.9 hPa | - | - | - | - |
| 1788465883 | 14.44° C | 77% | 1005 hPa | - | - | - | - |
| 1788463482 | 15° C | 74% | 1005.2 hPa | - | - | - | - |
| 1788449081 | 16.11° C | 78% | 1005.5 hPa | - | - | - | - |
| 1788447881 | 16.11° C | 78% | 1005.5 hPa | - | - | - | - |
| 1788444280 | 16.67° C | 74% | 1005.6 hPa | - | - | - | - |
| 1788443080 | 16.67° C | 72% | 1005.5 hPa | - | - | - | - |
| 1788441881 | 16.67° C | 75% | 1005.6 hPa | - | - | - | - |
| 1788438280 | 16.67° C | 72% | 1005.6 hPa | - | - | - | - |
| 1788437081 | 16.67° C | 74% | 1005.6 hPa | - | - | - | - |
| 1788434680 | 16.67° C | 71% | 1005.8 hPa | - | - | - | - |
| 1788433480 | 16.67° C | 70% | 1005.8 hPa | - | - | - | - |
| 1788431080 | 16.67° C | 73% | 1006 hPa | - | - | - | - |
| 1788427480 | 17.22° C | 68% | 1005.9 hPa | - | - | - | - |
* Rain since midnight (hover to see other rain measurements)
** Current wind speed in m/s (hover to see current wind gust speed)